����,���ϕ���(m/s),���ϕ���,�ő�u�ԕ���(m/s),�ő啗��������,�C��(��),���x(%),10���Ԉړ��ώZ�J��(mm),1���Ԉړ��ώZ�J��(mm),���J��(mm),�݌v�J��(mm),����(���ώZ)(MJ/m2),����(���ώZ)(min),���n�C��(hPa),�C�ʋC��(hPa)
2020-03-09T00:00:00+09:00,1.8,�k��,2.7,�k��,6.4,88.3,0,0,10,12,3.81,44,1004.5,1018.8
2020-03-09T00:01:00+09:00,1.7,�k��,2.7,�k��,6.4,88.5,0,0,0,12,0,0,1004.6,1018.9
2020-03-09T00:02:00+09:00,1.8,�k��,2.7,�k��,6.4,88.6,0,0,0,12,0,0,1004.6,1018.9
2020-03-09T00:03:00+09:00,1.8,�k��,2.7,�k��,6.5,88.9,0,0,0,12,0,0,1004.6,1018.9
2020-03-09T00:04:00+09:00,1.8,�k��,2.7,�k��,6.5,89.2,0,0,0,12,0,0,1004.6,1018.9
2020-03-09T00:05:00+09:00,1.8,�k��,2.7,�k��,6.4,88.6,0,0,0,12,0,0,1004.6,1018.9
2020-03-09T00:06:00+09:00,1.8,�k��,2.7,�k��,6.4,88.5,0,0,0,12,0,0,1004.6,1018.9
2020-03-09T00:07:00+09:00,1.7,�k��,3,�k��,6.5,89,0,0,0,12,0,0,1004.6,1018.9
2020-03-09T00:08:00+09:00,1.7,�k��,3,�k��,6.5,89.2,0,0,0,12,0,0,1004.6,1018.9
2020-03-09T00:09:00+09:00,1.8,�k��,3.4,�k��,6.5,89.2,0,0,0,12,0,0,1004.6,1018.9
2020-03-09T00:10:00+09:00,2,�k��,3.5,�k��,6.5,89.1,0,0,0,12,0,0,1004.5,1018.8
2020-03-09T00:11:00+09:00,2.1,�k��,3.5,�k��,6.6,89.3,0,0,0,12,0,0,1004.6,1018.9
2020-03-09T00:12:00+09:00,2.2,�k��,3.7,�k��,6.5,89.1,0,0,0,12,0,0,1004.5,1018.8
2020-03-09T00:13:00+09:00,2.3,�k��,3.7,�k��,6.5,88.7,0,0,0,12,0,0,1004.5,1018.8
2020-03-09T00:14:00+09:00,2.4,�k��,3.9,�k��,6.6,88.8,0,0,0,12,0,0,1004.5,1018.8
2020-03-09T00:15:00+09:00,2.6,�k��,3.9,�k��,6.6,89.1,0,0,0,12,0,0,1004.5,1018.8
2020-03-09T00:16:00+09:00,2.8,�k��,3.9,�k��,6.6,89,0,0,0,12,0,0,1004.5,1018.8
2020-03-09T00:17:00+09:00,3,�k��,4.1,�k��,6.5,88.4,0,0,0,12,0,0,1004.5,1018.8
2020-03-09T00:18:00+09:00,3.1,�k��,4.1,�k��,6.6,88.3,0,0,0,12,0,0,1004.5,1018.8
2020-03-09T00:19:00+09:00,3.1,�k��,4.1,�k��,6.6,88.7,0,0,0,12,0,0,1004.5,1018.8
2020-03-09T00:20:00+09:00,3.1,�k��,4.1,�k��,6.5,88.2,0,0,0,12,0,0,1004.5,1018.8
2020-03-09T00:21:00+09:00,3.1,�k��,4.1,�k��,6.5,88.2,0,0,0,12,0,0,1004.5,1018.8
2020-03-09T00:22:00+09:00,3.1,�k��,4.2,�k�k��,6.5,88.2,0,0,0,12,0,0,1004.5,1018.8
2020-03-09T00:23:00+09:00,3.1,�k��,4.2,�k�k��,6.3,87.9,0,0,0,12,0,0,1004.5,1018.8
2020-03-09T00:24:00+09:00,3,�k�k��,4.2,�k�k��,6.4,88,0,0,0,12,0,0,1004.5,1018.8
2020-03-09T00:25:00+09:00,2.9,�k�k��,4.2,�k�k��,6.3,88.3,0,0,0,12,0,0,1004.5,1018.8
2020-03-09T00:26:00+09:00,2.8,�k�k��,4.2,�k�k��,6.4,88.2,0,0,0,12,0,0,1004.4,1018.7
2020-03-09T00:27:00+09:00,2.8,�k�k��,4.2,�k�k��,6.4,88.5,0,0,0,12,0,0,1004.4,1018.7
2020-03-09T00:28:00+09:00,2.7,�k�k��,4.2,�k�k��,6.3,88.4,0,0,0,12,0,0,1004.4,1018.7
2020-03-09T00:29:00+09:00,2.7,�k�k��,4.2,�k�k��,6.3,88,0,0,0,12,0,0,1004.5,1018.8
2020-03-09T00:30:00+09:00,2.7,�k�k��,4.2,�k�k��,6.4,88.5,0,0,0,12,0,0,1004.5,1018.8
2020-03-09T00:31:00+09:00,2.6,�k�k��,4.2,�k�k��,6.3,88.4,0,0,0,12,0,0,1004.4,1018.7
2020-03-09T00:32:00+09:00,2.6,�k�k��,3.9,�k�k��,6.4,88.6,0,0,0,12,0,0,1004.5,1018.8
2020-03-09T00:33:00+09:00,2.6,�k�k��,3.9,�k�k��,6.4,88.8,0,0,0,12,0,0,1004.5,1018.8
2020-03-09T00:34:00+09:00,2.6,�k�k��,4,�k�k��,6.3,88.4,0,0,0,12,0,0,1004.5,1018.8
2020-03-09T00:35:00+09:00,2.7,�k�k��,5.3,�k�k��,6.4,88.4,0,0,0,12,0,0,1004.5,1018.8
2020-03-09T00:36:00+09:00,2.7,�k�k��,5.3,�k�k��,6.5,88.9,0,0,0,12,0,0,1004.5,1018.8
2020-03-09T00:37:00+09:00,2.7,�k�k��,5.3,�k�k��,6.7,89,0,0,0,12,0,0,1004.5,1018.8
2020-03-09T00:38:00+09:00,2.7,�k�k��,5.3,�k�k��,6.7,88.4,0,0,0,12,0,0,1004.5,1018.8
2020-03-09T00:39:00+09:00,2.7,�k�k��,5.3,�k�k��,6.7,87.9,0,0,0,12,0,0,1004.5,1018.8
2020-03-09T00:40:00+09:00,2.7,�k�k��,5.3,�k�k��,6.7,87.7,0,0,0,12,0,0,1004.5,1018.8
2020-03-09T00:41:00+09:00,2.7,�k,5.3,�k�k��,6.8,87.3,0,0,0,12,0,0,1004.5,1018.8
2020-03-09T00:42:00+09:00,2.6,�k,5.3,�k�k��,6.9,87.1,0,0,0,12,0,0,1004.4,1018.7
2020-03-09T00:43:00+09:00,2.4,�k,5.3,�k�k��,6.9,86.7,0,0,0,12,0,0,1004.4,1018.7
2020-03-09T00:44:00+09:00,2.3,�k,5.3,�k�k��,6.9,86.3,0,0,0,12,0,0,1004.4,1018.7
2020-03-09T00:45:00+09:00,2.1,�k,4.8,�k�k��,6.8,85.9,0,0,0,12,0,0,1004.5,1018.8
2020-03-09T00:46:00+09:00,2.1,�k,4.8,�k�k��,6.7,85.2,0,0,0,12,0,0,1004.4,1018.7
2020-03-09T00:47:00+09:00,2,�k,4.2,�k,6.7,85.5,0,0,0,12,0,0,1004.4,1018.7
2020-03-09T00:48:00+09:00,1.9,�k,4.2,�k,6.7,85.6,0,0,0,12,0,0,1004.4,1018.7
2020-03-09T00:49:00+09:00,1.8,�k,4.2,�k,6.8,86,0,0,0,12,0,0,1004.4,1018.7
2020-03-09T00:50:00+09:00,1.7,�k,4.1,�k�k��,6.7,85.9,0,0,0,12,0,0,1004.3,1018.6
2020-03-09T00:51:00+09:00,1.8,�k,4.1,�k�k��,6.7,85.7,0,0,0,12,0,0,1004.3,1018.6
2020-03-09T00:52:00+09:00,1.8,�k,3.8,�k,6.8,86.3,0,0,0,12,0,0,1004.3,1018.6
2020-03-09T00:53:00+09:00,1.8,�k,3.8,�k,7,86.7,0,0,0,12,0,0,1004.3,1018.6
2020-03-09T00:54:00+09:00,1.9,�k,3.8,�k,7,86.2,0,0,0,12,0,0,1004.3,1018.6
2020-03-09T00:55:00+09:00,1.9,�k,3.8,�k,7.1,85.7,0,0,0,12,0,0,1004.3,1018.6
2020-03-09T00:56:00+09:00,1.8,�k,3.8,�k,7.1,85.3,0,0,0,12,0,0,1004.3,1018.6
2020-03-09T00:57:00+09:00,1.8,�k,3.8,�k,7,84.8,0,0,0,12,0,0,1004.4,1018.7
2020-03-09T00:58:00+09:00,1.9,�k�k��,3.8,�k,7,84.4,0,0,0,12,0,0,1004.4,1018.7
2020-03-09T00:59:00+09:00,1.8,�k�k��,3.8,�k,7,84.5,0,0,0,12,0,0,1004.4,1018.7
2020-03-09T01:00:00+09:00,1.7,�k�k��,3.7,�k��,7,84.6,0,0,0,12,0,0,1004.5,1018.8
2020-03-09T01:01:00+09:00,1.6,�k�k��,3.7,�k��,6.9,84.4,0,0,0,12,0,0,1004.5,1018.8
2020-03-09T01:02:00+09:00,1.5,�k�k��,3.2,�k�k��,6.8,84.2,0,0,0,12,0,0,1004.5,1018.8
2020-03-09T01:03:00+09:00,1.5,�k�k��,3.2,�k�k��,6.8,84.5,0,0,0,12,0,0,1004.5,1018.8
2020-03-09T01:04:00+09:00,1.4,�k�k��,2.8,�k,6.8,85,0,0,0,12,0,0,1004.4,1018.7
2020-03-09T01:05:00+09:00,1.4,�k�k��,2.8,�k,7,85.6,0,0,0,12,0,0,1004.4,1018.7
2020-03-09T01:06:00+09:00,1.5,�k�k��,3.7,�k,7,85.5,0,0,0,12,0,0,1004.4,1018.7
2020-03-09T01:07:00+09:00,1.5,�k,4.2,�k,7,84.9,0,0,0,12,0,0,1004.4,1018.7
2020-03-09T01:08:00+09:00,1.5,�k,4.2,�k,7.2,85,0,0,0,12,0,0,1004.4,1018.7
2020-03-09T01:09:00+09:00,1.6,�k�k��,4.2,�k,7.1,84.7,0,0,0,12,0,0,1004.4,1018.7
2020-03-09T01:10:00+09:00,1.6,�k�k��,4.2,�k,6.7,82.4,0,0,0,12,0,0,1004.4,1018.7
2020-03-09T01:11:00+09:00,1.6,�k�k��,4.2,�k,6.3,81.7,0,0,0,12,0,0,1004.3,1018.6
2020-03-09T01:12:00+09:00,1.6,�k�k��,4.2,�k,6.1,82.3,0,0,0,12,0,0,1004.4,1018.7
2020-03-09T01:13:00+09:00,1.5,�k�k��,4.2,�k,6,83.3,0,0,0,12,0,0,1004.4,1018.7
2020-03-09T01:14:00+09:00,1.4,�k�k��,4.2,�k,6.2,84.9,0,0,0,12,0,0,1004.5,1018.8
2020-03-09T01:15:00+09:00,1.3,�k�k��,4.2,�k,6.1,85.7,0,0,0,12,0,0,1004.5,1018.8
2020-03-09T01:16:00+09:00,1.2,�k�k��,4.2,�k,6.1,86.2,0,0,0,12,0,0,1004.5,1018.8
2020-03-09T01:17:00+09:00,1,�k�k��,3.6,�k��,6.2,86.8,0,0,0,12,0,0,1004.5,1018.8
2020-03-09T01:18:00+09:00,0.9,�k�k��,3.6,�k��,6.2,87.3,0,0,0,12,0,0,1004.4,1018.7
2020-03-09T01:19:00+09:00,0.8,�k�k��,2.8,�k��,5.9,86.8,0,0,0,12,0,0,1004.4,1018.7
2020-03-09T01:20:00+09:00,0.7,�k�k��,1.9,���k��,5.9,86.9,0,0,0,12,0,0,1004.4,1018.7
2020-03-09T01:21:00+09:00,0.6,�k�k��,1.7,���k��,5.9,87.2,0,0,0,12,0,0,1004.4,1018.7
2020-03-09T01:22:00+09:00,0.6,�k�k��,1.7,���k��,5.9,87.4,0,0,0,12,0,0,1004.4,1018.7
2020-03-09T01:23:00+09:00,0.7,�k�k��,2.1,�k��,6,88,0,0,0,12,0,0,1004.4,1018.7
2020-03-09T01:24:00+09:00,0.8,�k�k��,2.1,�k��,5.9,88.1,0,0,0,12,0,0,1004.4,1018.7
2020-03-09T01:25:00+09:00,0.8,�k�k��,2.1,�k��,5.9,88.1,0,0,0,12,0,0,1004.4,1018.7
2020-03-09T01:26:00+09:00,0.8,�k�k��,2.1,�k��,5.9,88,0,0,0,12,0,0,1004.4,1018.7
2020-03-09T01:27:00+09:00,0.9,�k�k��,2.1,�k��,5.9,88.2,0,0,0,12,0,0,1004.4,1018.7
2020-03-09T01:28:00+09:00,0.9,�k�k��,2.1,�k��,5.9,88.2,0,0,0,12,0,0,1004.4,1018.7
2020-03-09T01:29:00+09:00,1,�k�k��,2.1,�k��,5.9,88.3,0,0,0,12,0,0,1004.4,1018.7
2020-03-09T01:30:00+09:00,1,�k�k��,2.1,�k��,6,88.6,0,0,0,12,0,0,1004.5,1018.8
2020-03-09T01:31:00+09:00,1,�k�k��,2.1,�k��,5.9,88.4,0,0,0,12,0,0,1004.6,1018.9
2020-03-09T01:32:00+09:00,1,�k�k��,2.1,�k��,5.7,87.8,0,0,0,12,0,0,1004.6,1018.9
2020-03-09T01:33:00+09:00,1,�k�k��,2.1,�k�k��,5.7,87.9,0,0,0,12,0,0,1004.6,1018.9
2020-03-09T01:34:00+09:00,1,�k�k��,2.1,�k�k��,5.8,88.4,0,0,0,12,0,0,1004.7,1019
2020-03-09T01:35:00+09:00,1.1,�k,2.1,�k�k��,5.7,88.7,0,0,0,12,0,0,1004.7,1019
2020-03-09T01:36:00+09:00,1.1,�k,2,�k��,5.9,89.1,0,0,0,12,0,0,1004.7,1019
2020-03-09T01:37:00+09:00,1.1,�k,2,�k��,5.9,89.6,0,0,0,12,0,0,1004.7,1019
2020-03-09T01:38:00+09:00,1.1,�k�k��,2,�k��,5.8,89,0,0,0,12,0,0,1004.7,1019
2020-03-09T01:39:00+09:00,1.1,�k�k��,2,�k��,5.7,88.8,0,0,0,12,0,0,1004.7,1019
2020-03-09T01:40:00+09:00,1.1,�k�k��,2,�k��,5.4,88.3,0,0,0,12,0,0,1004.7,1019.1
2020-03-09T01:41:00+09:00,1.1,�k�k��,2,�k��,5.4,87.8,0,0,0,12,0,0,1004.7,1019.1
2020-03-09T01:42:00+09:00,1.1,�k�k��,2,�k��,5.2,88.1,0,0,0,12,0,0,1004.7,1019.1
2020-03-09T01:43:00+09:00,1,�k,2,�k��,5.4,88.7,0,0,0,12,0,0,1004.6,1019
2020-03-09T01:44:00+09:00,1,�k,2,�k��,5.4,89.4,0,0,0,12,0,0,1004.6,1019
2020-03-09T01:45:00+09:00,0.9,�k,2,�k��,5.4,89.7,0,0,0,12,0,0,1004.7,1019.1
2020-03-09T01:46:00+09:00,0.9,�k,2,�k��,5.4,90,0,0,0,12,0,0,1004.7,1019.1
2020-03-09T01:47:00+09:00,0.8,�k�k��,1.7,�k��,5.4,89.9,0,0,0,12,0,0,1004.7,1019.1
2020-03-09T01:48:00+09:00,0.8,�k�k��,1.7,�k��,5.4,89.8,0,0,0,12,0,0,1004.7,1019.1
2020-03-09T01:49:00+09:00,0.8,�k�k��,1.6,��,5.4,90,0,0,0,12,0,0,1004.7,1019.1
2020-03-09T01:50:00+09:00,0.7,�k�k��,1.6,��,5.4,90.1,0,0,0,12,0,0,1004.7,1019.1
2020-03-09T01:51:00+09:00,0.7,�k�k��,1.4,�k,5.4,89.8,0,0,0,12,0,0,1004.7,1019.1
2020-03-09T01:52:00+09:00,0.7,�k�k��,1.6,���k��,5.3,89.7,0,0,0,12,0,0,1004.8,1019.2
2020-03-09T01:53:00+09:00,0.8,�k�k��,1.6,���k��,5.2,89.4,0,0,0,12,0,0,1004.7,1019.1
2020-03-09T01:54:00+09:00,0.8,�k��,1.6,���k��,5.1,89.2,0,0,0,12,0,0,1004.7,1019.1
2020-03-09T01:55:00+09:00,0.7,�k��,1.6,���k��,5.2,89.6,0,0,0,12,0,0,1004.7,1019.1
2020-03-09T01:56:00+09:00,0.7,�k��,1.6,���k��,5.1,89.7,0,0,0,12,0,0,1004.7,1019.1
2020-03-09T01:57:00+09:00,0.7,�k�k��,1.6,���k��,5.2,89.8,0,0,0,12,0,0,1004.7,1019.1
2020-03-09T01:58:00+09:00,0.8,�k�k��,1.6,���k��,5.3,90.4,0,0,0,12,0,0,1004.6,1019
2020-03-09T01:59:00+09:00,0.8,�k�k��,1.7,�k��,5.3,90.8,0,0,0,12,0,0,1004.7,1019.1
2020-03-09T02:00:00+09:00,0.9,�k,1.9,�k��,5.4,91.1,0,0,0,12,0,0,1004.7,1019.1
2020-03-09T02:01:00+09:00,0.9,�k,1.9,�k��,5.4,91.2,0,0,0,12,0,0,1004.7,1019.1
2020-03-09T02:02:00+09:00,0.9,�k�k��,1.9,�k��,5.4,91.3,0,0,0,12,0,0,1004.7,1019.1
2020-03-09T02:03:00+09:00,0.9,�k�k��,1.9,�k��,5.5,91.4,0,0,0,12,0,0,1004.6,1019
2020-03-09T02:04:00+09:00,0.9,�k�k��,1.9,�k��,5.4,91.6,0,0,0,12,0,0,1004.7,1019.1
2020-03-09T02:05:00+09:00,1.1,�k��,1.9,�k��,5.5,91.5,0,0,0,12,0,0,1004.7,1019.1
2020-03-09T02:06:00+09:00,1.2,�k��,1.9,�k��,5.5,91.7,0,0,0,12,0,0,1004.7,1019.1
2020-03-09T02:07:00+09:00,1.2,�k��,1.9,�k��,5.5,91.7,0,0,0,12,0,0,1004.7,1019.1
2020-03-09T02:08:00+09:00,1.1,�k��,1.9,�k��,5.5,91.8,0,0,0,12,0,0,1004.7,1019.1
2020-03-09T02:09:00+09:00,1.1,�k�k��,1.9,�k��,5.7,92.1,0,0,0,12,0,0,1004.7,1019
2020-03-09T02:10:00+09:00,1.1,�k�k��,1.8,�k��,5.7,92.5,0,0,0,12,0,0,1004.7,1019
2020-03-09T02:11:00+09:00,1,�k�k��,1.8,�k��,5.6,92,0,0,0,12,0,0,1004.7,1019.1
2020-03-09T02:12:00+09:00,1.1,�k�k��,1.8,�k��,5.7,91.7,0,0,0,12,0,0,1004.7,1019
2020-03-09T02:13:00+09:00,1.1,�k�k��,1.8,�k��,5.6,91.6,0,0,0,12,0,0,1004.7,1019.1
2020-03-09T02:14:00+09:00,1,�k�k��,1.8,�k��,5.5,91.3,0,0,0,12,0,0,1004.6,1019
2020-03-09T02:15:00+09:00,0.9,�k�k��,1.9,�k�k��,5.6,91.2,0,0,0,12,0,0,1004.7,1019.1
2020-03-09T02:16:00+09:00,0.9,�k�k��,1.9,�k�k��,5.5,90.9,0,0,0,12,0,0,1004.7,1019.1
2020-03-09T02:17:00+09:00,0.8,�k,1.9,�k�k��,5.5,90.9,0,0,0,12,0,0,1004.7,1019.1
2020-03-09T02:18:00+09:00,0.9,�k,1.9,�k�k��,5.2,89.8,0,0,0,12,0,0,1004.7,1019.1
2020-03-09T02:19:00+09:00,0.8,�k,1.9,�k�k��,5,89.2,0,0,0,12,0,0,1004.7,1019.1
2020-03-09T02:20:00+09:00,0.8,�k,1.9,�k�k��,5,89.4,0,0,0,12,0,0,1004.7,1019.1
2020-03-09T02:21:00+09:00,0.8,�k�k��,1.9,�k�k��,5,89.9,0,0,0,12,0,0,1004.7,1019.1
2020-03-09T02:22:00+09:00,0.8,�k�k��,1.9,�k�k��,4.7,89.9,0,0,0,12,0,0,1004.7,1019.1
2020-03-09T02:23:00+09:00,0.7,�k�k��,1.9,�k�k��,4.9,89.8,0,0,0,12,0,0,1004.7,1019.1
2020-03-09T02:24:00+09:00,0.7,�k�k��,1.9,�k�k��,5,91,0,0,0,12,0,0,1004.6,1019
2020-03-09T02:25:00+09:00,0.8,�k�k��,1.7,��,5,91.5,0,0,0,12,0,0,1004.6,1019
2020-03-09T02:26:00+09:00,0.8,�k�k��,1.7,��,5.1,91.7,0,0,0,12,0,0,1004.6,1019
2020-03-09T02:27:00+09:00,0.8,�k,1.7,�k��,5.2,92,0,0,0,12,0,0,1004.6,1019
2020-03-09T02:28:00+09:00,0.8,�k,1.7,�k��,5.2,92.3,0,0,0,12,0,0,1004.6,1019
2020-03-09T02:29:00+09:00,0.8,�k�k��,1.7,�k��,5.3,92.3,0,0,0,12,0,0,1004.7,1019.1
2020-03-09T02:30:00+09:00,0.9,�k,1.7,�k��,5.2,92.3,0,0,0,12,0,0,1004.7,1019.1
2020-03-09T02:31:00+09:00,0.9,�k,1.7,�k��,5.2,91.9,0,0,0,12,0,0,1004.7,1019.1
2020-03-09T02:32:00+09:00,0.9,�k,1.7,�k��,5.2,91.8,0,0,0,12,0,0,1004.7,1019.1
2020-03-09T02:33:00+09:00,1,�k,1.7,�k��,5.2,92,0,0,0,12,0,0,1004.8,1019.2
2020-03-09T02:34:00+09:00,1,�k�k��,1.7,�k��,5,91.3,0,0,0,12,0,0,1004.8,1019.2
2020-03-09T02:35:00+09:00,1,�k��,1.7,�k��,4.9,90.7,0,0,0,12,0,0,1004.8,1019.2
2020-03-09T02:36:00+09:00,1,�k��,1.7,�k��,4.9,90.8,0,0,0,12,0,0,1004.8,1019.2
2020-03-09T02:37:00+09:00,1.1,���k��,2.3,���k��,4.9,91,0,0,0,12,0,0,1004.8,1019.2
2020-03-09T02:38:00+09:00,1.2,���k��,2.4,���k��,4.9,91.1,0,0,0,12,0,0,1004.7,1019.1
2020-03-09T02:39:00+09:00,1.4,���k��,3.3,��,4.7,90.9,0,0,0,12,0,0,1004.8,1019.2
2020-03-09T02:40:00+09:00,1.6,��,3.3,��,4.6,90.3,0,0,0,12,0,0,1004.8,1019.2
2020-03-09T02:41:00+09:00,1.6,���k��,3.3,��,4.6,90.5,0,0,0,12,0,0,1004.8,1019.2
2020-03-09T02:42:00+09:00,1.7,���k��,3.3,��,4.6,90.8,0,0,0,12,0,0,1004.7,1019.1
2020-03-09T02:43:00+09:00,1.7,���k��,3.3,��,4.7,91.3,0,0,0,12,0,0,1004.7,1019.1
2020-03-09T02:44:00+09:00,1.8,���k��,3.3,��,4.6,91.3,0,0,0,12,0,0,1004.7,1019.1
2020-03-09T02:45:00+09:00,1.9,���k��,3.3,��,4.6,91,0,0,0,12,0,0,1004.7,1019.1
2020-03-09T02:46:00+09:00,1.9,���k��,3.3,��,4.7,91.4,0,0,0,12,0,0,1004.7,1019.1
2020-03-09T02:47:00+09:00,1.8,���k��,3.3,��,4.8,91.9,0,0,0,12,0,0,1004.7,1019.1
2020-03-09T02:48:00+09:00,1.7,���k��,3.3,��,4.9,92.3,0,0,0,12,0,0,1004.6,1019
2020-03-09T02:49:00+09:00,1.6,���k��,3.3,��,4.7,92,0,0,0,12,0,0,1004.6,1019
2020-03-09T02:50:00+09:00,1.4,���k��,2.5,���k��,4.7,91.6,0,0,0,12,0,0,1004.6,1019
2020-03-09T02:51:00+09:00,1.4,���k��,2.5,���k��,4.7,91.5,0,0,0,12,0,0,1004.5,1018.9
2020-03-09T02:52:00+09:00,1.4,���k��,2.5,���k��,4.5,91.1,0,0,0,12,0,0,1004.6,1019
2020-03-09T02:53:00+09:00,1.4,���k��,2.5,���k��,4.3,90.5,0,0,0,12,0,0,1004.5,1018.9
2020-03-09T02:54:00+09:00,1.3,���k��,2.2,���k��,4.4,90.9,0,0,0,12,0,0,1004.5,1018.9
2020-03-09T02:55:00+09:00,1.2,���k��,2.2,���k��,4.5,91.6,0,0,0,12,0,0,1004.4,1018.8
2020-03-09T02:56:00+09:00,1.2,���k��,2.2,���k��,4.4,91.8,0,0,0,12,0,0,1004.4,1018.8
2020-03-09T02:57:00+09:00,1.3,���k��,2.2,���k��,4.5,91.9,0,0,0,12,0,0,1004.4,1018.8
2020-03-09T02:58:00+09:00,1.3,���k��,2.2,���k��,4.4,92.1,0,0,0,12,0,0,1004.3,1018.7
2020-03-09T02:59:00+09:00,1.3,�k��,2.2,���k��,4.5,92.1,0,0,0,12,0,0,1004.3,1018.7
2020-03-09T03:00:00+09:00,1.2,�k��,2.2,���k��,4.6,92.5,0,0,0,12,0,0,1004.2,1018.6
2020-03-09T03:01:00+09:00,1.3,�k��,2.5,�k�k��,4.7,92.8,0,0,0,12,0,0,1004.2,1018.6
2020-03-09T03:02:00+09:00,1.2,�k��,2.5,�k�k��,4.7,93,0,0,0,12,0,0,1004.1,1018.5
2020-03-09T03:03:00+09:00,1.2,�k��,2.5,�k�k��,4.6,92.8,0,0,0,12,0,0,1004.1,1018.5
2020-03-09T03:04:00+09:00,1.2,�k�k��,2.5,�k�k��,4.6,92.7,0,0,0,12,0,0,1004.1,1018.5
2020-03-09T03:05:00+09:00,1.2,�k�k��,2.5,�k�k��,4.5,92.5,0,0,0,12,0,0,1004.1,1018.5
2020-03-09T03:06:00+09:00,1.3,�k�k��,2.5,�k�k��,4.6,92.7,0,0,0,12,0,0,1004.1,1018.5
2020-03-09T03:07:00+09:00,1.3,�k�k��,2.5,�k�k��,4.6,92.7,0,0,0,12,0,0,1004.1,1018.5
2020-03-09T03:08:00+09:00,1.3,�k�k��,2.5,�k�k��,4.6,92.7,0,0,0,12,0,0,1004.1,1018.5
2020-03-09T03:09:00+09:00,1.3,�k�k��,2.5,�k�k��,4.6,92.8,0,0,0,12,0,0,1004.1,1018.5
2020-03-09T03:10:00+09:00,1.4,�k�k��,2.5,�k�k��,4.6,92.7,0,0,0,12,0,0,1004.1,1018.5
2020-03-09T03:11:00+09:00,1.4,�k��,2.3,�k�k��,4.6,93.1,0,0,0,12,0,0,1004.1,1018.5
2020-03-09T03:12:00+09:00,1.4,�k��,2.3,�k�k��,4.5,92.8,0,0,0,12,0,0,1004.1,1018.5
2020-03-09T03:13:00+09:00,1.4,�k��,2.3,�k�k��,4.6,92.9,0,0,0,12,0,0,1004.1,1018.5
2020-03-09T03:14:00+09:00,1.4,�k�k��,2.3,�k�k��,4.6,93,0,0,0,12,0,0,1004.2,1018.6
2020-03-09T03:15:00+09:00,1.4,�k�k��,2.3,�k�k��,4.6,93.2,0,0,0,12,0,0,1004.2,1018.6
2020-03-09T03:16:00+09:00,1.5,�k�k��,2.3,�k�k��,4.6,93.3,0,0,0,12,0,0,1004.2,1018.6
2020-03-09T03:17:00+09:00,1.5,�k��,2.9,���k��,4.7,93.3,0,0,0,12,0,0,1004.2,1018.6
2020-03-09T03:18:00+09:00,1.5,�k��,2.9,���k��,4.7,93.5,0,0,0,12,0,0,1004.1,1018.5
2020-03-09T03:19:00+09:00,1.5,�k��,2.9,���k��,4.7,93.5,0,0,0,12,0,0,1004.2,1018.6
2020-03-09T03:20:00+09:00,1.6,�k��,2.9,���k��,4.5,93.2,0,0,0,12,0,0,1004.1,1018.5
2020-03-09T03:21:00+09:00,1.5,�k��,2.9,���k��,4.6,92.7,0,0,0,12,0,0,1004.1,1018.5
2020-03-09T03:22:00+09:00,1.5,�k��,2.9,���k��,4.4,92.7,0,0,0,12,0,0,1004.1,1018.5
2020-03-09T03:23:00+09:00,1.5,�k��,2.9,���k��,4.4,92.4,0,0,0,12,0,0,1004.2,1018.6
2020-03-09T03:24:00+09:00,1.4,�k��,2.9,���k��,4.4,92.7,0,0,0,12,0,0,1004.1,1018.5
2020-03-09T03:25:00+09:00,1.4,�k��,2.9,���k��,4.4,92.6,0,0,0,12,0,0,1004.2,1018.6
2020-03-09T03:26:00+09:00,1.3,�k��,2.9,���k��,4.3,92.7,0,0,0,12,0,0,1004.2,1018.6
2020-03-09T03:27:00+09:00,1.2,�k��,2.5,���k��,4.3,92.4,0,0,0,12,0,0,1004.2,1018.6
2020-03-09T03:28:00+09:00,1.1,�k��,2.3,���k��,4.3,92.6,0,0,0,12,0,0,1004.2,1018.6
2020-03-09T03:29:00+09:00,1,�k��,1.9,�k��,4.3,92.8,0,0,0,12,0,0,1004.3,1018.7
2020-03-09T03:30:00+09:00,0.9,�k��,1.7,�k,4.3,92.5,0,0,0,12,0,0,1004.3,1018.7
2020-03-09T03:31:00+09:00,0.9,�k��,1.7,�k,4.2,92.3,0,0,0,12,0,0,1004.3,1018.7
2020-03-09T03:32:00+09:00,0.9,�k�k��,1.7,�k,4.4,92.8,0,0,0,12,0,0,1004.3,1018.7
2020-03-09T03:33:00+09:00,0.8,�k�k��,1.7,�k,4.5,93.1,0,0,0,12,0,0,1004.3,1018.7
2020-03-09T03:34:00+09:00,0.8,�k�k��,1.7,�k,4.5,93.4,0,0,0,12,0,0,1004.3,1018.7
2020-03-09T03:35:00+09:00,0.8,�k�k��,2.5,�k�k��,4.5,93,0,0,0,12,0,0,1004.3,1018.7
2020-03-09T03:36:00+09:00,0.8,�k,2.5,�k�k��,4.5,93.2,0,0,0,12,0,0,1004.2,1018.6
2020-03-09T03:37:00+09:00,0.9,�k,2.5,�k�k��,4.5,93.3,0,0,0,12,0,0,1004.2,1018.6
2020-03-09T03:38:00+09:00,0.9,�k,2.5,�k�k��,4.5,93.2,0,0,0,12,0,0,1004.2,1018.6
2020-03-09T03:39:00+09:00,1,�k�k��,2.5,�k�k��,4.5,93.1,0,0,0,12,0,0,1004.2,1018.6
2020-03-09T03:40:00+09:00,1,�k�k��,2.5,�k�k��,4.4,93.1,0,0,0,12,0,0,1004.2,1018.6
2020-03-09T03:41:00+09:00,1,�k�k��,2.5,�k�k��,4.4,92.7,0,0,0,12,0,0,1004.1,1018.5
2020-03-09T03:42:00+09:00,1,�k�k��,2.5,�k�k��,4.3,92.8,0,0,0,12,0,0,1004.1,1018.5
2020-03-09T03:43:00+09:00,1,�k�k��,2.5,�k�k��,4.4,92.9,0,0,0,12,0,0,1004.2,1018.6
2020-03-09T03:44:00+09:00,0.9,�k�k��,2.5,�k�k��,4.5,93.3,0,0,0,12,0,0,1004.1,1018.5
2020-03-09T03:45:00+09:00,0.8,�k,2.5,�k�k��,4.4,93.5,0,0,0,12,0,0,1004.2,1018.6
2020-03-09T03:46:00+09:00,0.8,�k,2.5,�k�k��,4.5,93.4,0,0,0,12,0,0,1004.1,1018.5
2020-03-09T03:47:00+09:00,0.7,�k�k��,2.5,�k�k��,4.4,93.4,0,0,0,12,0,0,1004.1,1018.5
2020-03-09T03:48:00+09:00,0.6,�k��,2.5,�k�k��,4.7,93.9,0,0,0,12,0,0,1004.1,1018.5
2020-03-09T03:49:00+09:00,0.6,�k��,2.5,�k�k��,4.6,94.4,0,0,0,12,0,0,1004.1,1018.5
2020-03-09T03:50:00+09:00,0.5,�k��,1,�k��,4.5,93.7,0,0,0,12,0,0,1004.1,1018.5
2020-03-09T03:51:00+09:00,0.5,���k��,1.2,�k��,4.5,93.5,0,0,0,12,0,0,1004.1,1018.5
2020-03-09T03:52:00+09:00,0.6,���k��,1.2,�k��,4.6,93.6,0,0,0,12,0,0,1004.1,1018.5
2020-03-09T03:53:00+09:00,0.6,���k��,1.3,���k��,4.6,93.9,0,0,0,12,0,0,1004.1,1018.5
2020-03-09T03:54:00+09:00,0.7,���k��,2.2,���k��,4.5,93.6,0,0,0,12,0,0,1004.1,1018.5
2020-03-09T03:55:00+09:00,0.7,���k��,2.2,���k��,4.4,93.4,0,0,0,12,0,0,1004.1,1018.5
2020-03-09T03:56:00+09:00,0.8,���k��,2.2,���k��,4.4,93.2,0,0,0,12,0,0,1004.1,1018.5
2020-03-09T03:57:00+09:00,0.9,�k��,2.2,���k��,4.3,93.2,0,0,0,12,0,0,1004.1,1018.5
2020-03-09T03:58:00+09:00,0.9,�k��,2.2,���k��,4.2,92.6,0,0,0,12,0,0,1004.1,1018.5
2020-03-09T03:59:00+09:00,1,�k��,2.5,�k��,4.1,92.5,0,0,0,12,0,0,1004.1,1018.5
2020-03-09T04:00:00+09:00,1.1,�k��,2.5,�k��,4.3,92.8,0,0,0,12,0,0,1004,1018.4
2020-03-09T04:01:00+09:00,1.1,�k��,2.5,�k��,4.3,93.5,0,0,0,12,0,0,1004,1018.4
2020-03-09T04:02:00+09:00,1.1,�k��,2.5,�k��,4.3,93.5,0,0,0,12,0,0,1004,1018.4
2020-03-09T04:03:00+09:00,1.1,�k��,2.5,�k��,4.3,93.1,0,0,0,12,0,0,1004,1018.4
2020-03-09T04:04:00+09:00,1.2,�k��,2.5,�k��,4.2,93,0,0,0,12,0,0,1004,1018.4
2020-03-09T04:05:00+09:00,1.2,�k��,2.5,�k��,4.1,92.2,0,0,0,12,0,0,1004,1018.4
2020-03-09T04:06:00+09:00,1.3,���k��,2.5,�k��,4,91.8,0,0,0,12,0,0,1004.1,1018.5
2020-03-09T04:07:00+09:00,1.3,���k��,2.5,�k��,4.1,92,0,0,0,12,0,0,1004.1,1018.5
2020-03-09T04:08:00+09:00,1.3,���k��,2.5,�k��,4.3,92.6,0,0,0,12,0,0,1004.1,1018.5
2020-03-09T04:09:00+09:00,1.2,���k��,2,���k��,4.2,93,0,0,0,12,0,0,1004,1018.4
2020-03-09T04:10:00+09:00,1.2,���k��,2,���k��,4.3,92.6,0,0,0,12,0,0,1004.1,1018.5
2020-03-09T04:11:00+09:00,1.2,���k��,2,���k��,4.3,93,0,0,0,12,0,0,1004.1,1018.5
2020-03-09T04:12:00+09:00,1.2,��,2,���k��,4.4,93.4,0,0,0,12,0,0,1004.1,1018.5
2020-03-09T04:13:00+09:00,1.1,���k��,2,���k��,4.5,93.5,0,0,0,12,0,0,1004.2,1018.6
2020-03-09T04:14:00+09:00,1,���k��,2,���k��,4.6,93.5,0,0,0,12,0,0,1004.2,1018.6
2020-03-09T04:15:00+09:00,0.9,���k��,2,���k��,4.5,93.5,0,0,0,12,0,0,1004.2,1018.6
2020-03-09T04:16:00+09:00,0.7,���k��,2,���k��,4.5,93.5,0,0,0,12,0,0,1004.2,1018.6
2020-03-09T04:17:00+09:00,0.6,���k��,2,���k��,4.5,93.4,0,0,0,12,0,0,1004.3,1018.7
2020-03-09T04:18:00+09:00,0.6,���k��,2,���k��,4.4,93,0,0,0,12,0,0,1004.3,1018.7
2020-03-09T04:19:00+09:00,0.6,���k��,2,���k��,4.3,93,0,0,0,12,0,0,1004.3,1018.7
2020-03-09T04:20:00+09:00,0.5,���k��,1.9,�k��,4.4,93,0,0,0,12,0,0,1004.3,1018.7
2020-03-09T04:21:00+09:00,0.5,�k��,1.5,��,4.5,93.5,0,0,0,12,0,0,1004.4,1018.8
2020-03-09T04:22:00+09:00,0.4,�k��,1,�k�k��,4.4,93.6,0,0,0,12,0,0,1004.4,1018.8
2020-03-09T04:23:00+09:00,0.4,�k��,1,�k�k��,4.6,93.7,0,0,0,12,0,0,1004.4,1018.8
2020-03-09T04:24:00+09:00,0.5,�k��,1.5,�k��,4.5,93.8,0,0,0,12,0,0,1004.4,1018.8
2020-03-09T04:25:00+09:00,0.5,�k��,1.5,�k��,4.5,93.4,0,0,0,12,0,0,1004.4,1018.8
2020-03-09T04:26:00+09:00,0.6,�k��,1.5,�k��,4.3,93.1,0,0,0,12,0,0,1004.4,1018.8
2020-03-09T04:27:00+09:00,0.7,�k��,1.5,�k��,4.3,92.8,0,0,0,12,0,0,1004.4,1018.8
2020-03-09T04:28:00+09:00,0.7,�k��,1.5,�k��,4.3,92.9,0,0,0,12,0,0,1004.4,1018.8
2020-03-09T04:29:00+09:00,0.7,�k��,1.5,�k��,4.3,93,0,0,0,12,0,0,1004.3,1018.7
2020-03-09T04:30:00+09:00,0.6,���k��,1.5,�k��,4.3,93.1,0,0,0,12,0,0,1004.4,1018.8
2020-03-09T04:31:00+09:00,0.6,���k��,1.5,�k��,4.4,93.3,0,0,0,12,0,0,1004.4,1018.8
2020-03-09T04:32:00+09:00,0.6,���k��,1.5,�k��,4.3,93.2,0,0,0,12,0,0,1004.4,1018.8
2020-03-09T04:33:00+09:00,0.6,���k��,1.5,�k��,4.3,93.3,0,0,0,12,0,0,1004.4,1018.8
2020-03-09T04:34:00+09:00,0.4,���k��,1.3,��,4.4,93.2,0,0,0,12,0,0,1004.4,1018.8
2020-03-09T04:35:00+09:00,0.4,���k��,1.3,��,4.6,93.8,0,0,0,12,0,0,1004.4,1018.8
2020-03-09T04:36:00+09:00,0.4,���k��,1.3,��,4.4,93.6,0,0,0,12,0,0,1004.4,1018.8
2020-03-09T04:37:00+09:00,0.3,�k��,1.1,���k��,4.4,93.1,0,0,0,12,0,0,1004.4,1018.8
2020-03-09T04:38:00+09:00,0.2,�É�,0.8,��,4.5,93.1,0,0,0,12,0,0,1004.4,1018.8
2020-03-09T04:39:00+09:00,0.2,�É�,0.8,��,4.5,93.2,0,0,0,12,0,0,1004.4,1018.8
2020-03-09T04:40:00+09:00,0.2,�É�,0.8,��,4.5,93.3,0,0,0,12,0,0,1004.4,1018.8
2020-03-09T04:41:00+09:00,0.2,�É�,0.7,�k��,4.5,93.3,0,0,0,12,0,0,1004.4,1018.8
2020-03-09T04:42:00+09:00,0.2,�É�,0.7,�k��,4.6,93.6,0,0,0,12,0,0,1004.4,1018.8
2020-03-09T04:43:00+09:00,0.2,�É�,0.7,�k��,4.6,93.9,0,0,0,12,0,0,1004.4,1018.8
2020-03-09T04:44:00+09:00,0.2,�É�,0.7,�k��,4.4,93.2,0,0,0,12,0,0,1004.4,1018.8
2020-03-09T04:45:00+09:00,0.3,�k�k��,0.9,�k��,4.4,92.7,0,0,0,12,0,0,1004.4,1018.8
2020-03-09T04:46:00+09:00,0.3,�k�k��,1,�k��,4.5,92.9,0,0,0,12,0,0,1004.3,1018.7
2020-03-09T04:47:00+09:00,0.4,�k�k��,1.1,�k��,4.4,93,0,0,0,12,0,0,1004.4,1018.8
2020-03-09T04:48:00+09:00,0.5,�k�k��,1.1,�k��,4.3,92.6,0,0,0,12,0,0,1004.4,1018.8
2020-03-09T04:49:00+09:00,0.5,�k��,1.1,�k��,4.2,92.6,0,0,0,12,0,0,1004.4,1018.8
2020-03-09T04:50:00+09:00,0.5,�k��,1.1,�k��,4.1,92.3,0,0,0,12,0,0,1004.4,1018.8
2020-03-09T04:51:00+09:00,0.6,�k��,1.1,�k��,4.1,92.4,0,0,0,12,0,0,1004.4,1018.8
2020-03-09T04:52:00+09:00,0.6,�k�k��,1.1,�k��,4,92.2,0,0,0,12,0,0,1004.4,1018.8
2020-03-09T04:53:00+09:00,0.5,�k�k��,1.1,�k��,3.9,92.2,0,0,0,12,0,0,1004.4,1018.8
2020-03-09T04:54:00+09:00,0.5,�k�k��,1.1,�k��,4,92.5,0,0,0,12,0,0,1004.4,1018.8
2020-03-09T04:55:00+09:00,0.5,�k�k��,1.1,�k��,4,92.9,0,0,0,12,0,0,1004.4,1018.8